Back to catalog

STARLINK-11267

AliveCommunicationsVLEO
NORAD 60994·PAYLOAD·🇺🇸 United States

Launched Sep 5, 2024 from Cape Canaveral Space Force Station

Loading…

Next Passes (next 24 hours)

TLE

FreshSource: CelesTrak SupGP

Epoch: Sep 14, 2026, 22:43 UTC

1 60994C 24158E   26257.94701389  .00082122  00000+0  67639-3 0  2576
2 60994  53.1572  68.5976 0001054  78.8954 351.8486 15.69671278    13

Track STARLINK-11267 in real time with AllMySat

Download on the App Store